Daleville, AL

12:39 AM CST on February 23, 2017 (GMT -0600)
Cairns Army Air Field

Weather History for KOZR - January, 2013

Change the Weather History Date:

Wednesday, January 23, 2013

  Actual Average Record
Temperature  
Mean Temperature 46 °F -  
Max Temperature 61 °F 58 °F 78 °F (2002)
Min Temperature 32 °F 37 °F 19 °F (2003)
Degree Days  
Heating Degree Days 18    
Moisture  
Dew Point 36 °F    
Average Humidity 68    
Maximum Humidity 90    
Minimum Humidity 38    
Precipitation  
Precipitation 0.00 in - - ()
Sea Level Pressure  
Sea Level Pressure 30.34 in    
Wind  
Wind Speed 2 mph (SW)    
Max Wind Speed 7 mph    
Max Gust Speed -    
Visibility 10 miles    
Events      
Averages and records for this station are not official NWS values.
T = Trace of Precipitation, MM = Missing Value Source: NWS Daily Summary

Daily Weather History Graph

Daily Weather History Graph

Search for Another Location

Airport or City:

Trip Planner

Search our weather history database for the weather conditions in past years. The results will help you decide how hot, cold, wet, or windy it might be!

Date:

Astronomy

Jan. 23, 2013 Rise Set
Actual Time 6:39 AM CST 5:10 PM CST
Civil Twilight 6:13 AM CST 5:36 PM CST
Nautical Twilight 5:44 AM CST 6:05 PM CST
Astronomical Twilight 5:15 AM CST 6:34 PM CST
Moon 2:22 PM CST 3:47 AM CST
Length of Visible Light 11h 22m
Length of Day
10h 30m
Waxing Gibbous, 89% of the Moon is Illuminated
Jan 23
Waxing Gibbous
Jan 26
Full
Feb 3
Last Quarter
Feb 10
New
Feb 17
First Quarter

Hourly Weather History & Observations

Time (CST) Temp. Windchill Dew Point Humidity Pressure Visibility Wind Dir Wind Speed Gust Speed Precip Events Conditions
12:55 AM 33.8 °F - 30.4 °F 87% 30.34 in 10.0 mi Calm Calm - N/A   Clear
1:55 AM 33.8 °F - 30.2 °F 87% 30.34 in 10.0 mi Calm Calm - N/A   Clear
2:55 AM 35.1 °F - 31.3 °F 86% 30.34 in 10.0 mi Calm Calm - N/A   Clear
3:55 AM 33.8 °F 30.8 °F 29.5 °F 84% 30.35 in 10.0 mi North 3.5 mph - N/A   Clear
4:55 AM 32.7 °F - 28.9 °F 86% 30.36 in 10.0 mi Calm Calm - N/A   Clear
5:55 AM 32.2 °F - 28.9 °F 88% 30.38 in 10.0 mi Calm Calm - N/A   Mostly Cloudy
6:55 AM 35.4 °F 31.5 °F 30.2 °F 81% 30.40 in 10.0 mi NE 4.6 mph - N/A   Overcast
7:55 AM 37.9 °F 35.5 °F 30.7 °F 75% 30.41 in 10.0 mi NE 3.5 mph - N/A   Overcast
8:55 AM 43.9 °F 41.3 °F 29.1 °F 56% 30.43 in 10.0 mi East 4.6 mph - N/A   Scattered Clouds
9:55 AM 50.0 °F - 30.4 °F 47% 30.43 in 10.0 mi Calm Calm - N/A   Clear
10:55 AM 55.0 °F - 30.0 °F 38% 30.40 in 10.0 mi SW 3.5 mph - N/A   Clear
11:55 AM 57.6 °F - 34.2 °F 41% 30.38 in 10.0 mi SW 5.8 mph - N/A   Overcast
12:55 PM 57.7 °F - 35.4 °F 43% 30.35 in 10.0 mi WSW 4.6 mph - N/A   Overcast
1:55 PM 61.0 °F - 37.9 °F 42% 30.32 in 10.0 mi Variable 3.5 mph - N/A   Scattered Clouds
2:55 PM 60.6 °F - 38.7 °F 44% 30.31 in 10.0 mi WSW 5.8 mph - N/A   Clear
3:55 PM 61.0 °F - 40.5 °F 47% 30.31 in 10.0 mi West 4.6 mph - N/A   Scattered Clouds
4:55 PM 59.0 °F - 41.0 °F 51% 30.30 in 10.0 mi Calm Calm - N/A   Clear
5:55 PM 54.1 °F - 40.6 °F 60% 30.30 in 10.0 mi Calm Calm - N/A   Clear
6:55 PM 51.4 °F - 40.3 °F 66% 30.29 in 10.0 mi South 5.8 mph - N/A   Clear
7:55 PM 51.1 °F - 43.5 °F 75% 30.30 in 10.0 mi SSW 6.9 mph - N/A   Clear
8:55 PM 49.6 °F - 43.9 °F 81% 30.31 in 10.0 mi SSW 4.6 mph - N/A   Mostly Cloudy
9:55 PM 48.4 °F - 44.1 °F 85% 30.30 in 10.0 mi SSW 5.8 mph - N/A   Clear
10:55 PM 47.7 °F - 44.4 °F 89% 30.29 in 10.0 mi SW 4.6 mph - N/A   Clear
11:55 PM 48.6 °F - 45.7 °F 90% 30.29 in 10.0 mi WSW 4.6 mph - N/A   Clear